Showing default

ION SCV-020, 64545

Orbit data source: Space-Track

ION SCV-020, 64545 is a payload satellite owned by D-ORBIT (IT) in SSO that was launched on Mon, 23 Jun 2025 UTC via an FALCON 9 launch vehicle from the Air Force Western Test Range (AFWTR). Payload-class satellites include a variety of spacecraft equipped with specific instruments for various scientific and technological missions. These include communications satellites like Starlink; space stations such as the ISS; scientific satellites like the Hubble; Earth observation satellites from companies like Planet Labs, Umbra, and HawkEye 360; GPS; miniature CubeSats for education and research; and military/defense satellites.

Loading next visibility...
Identifier
64545, 2025-135T
Orbit
SSO
Country
Flag of ITIT
Related business
Manufacturer
D-ORBIT
Mission
Operational Commercial Technology
Bus & Motor
ION-SC, PM200
Mass
220 kg wet, 150 kg dry
Launch date (UTC)
2025-06-23 (1 year ago)
Launch vehicle
FALCON 9
Launch site
Air Force Western Test Range (AFWTR)
Object type
Payload
Rocket body
Debris
Shape & HBR
Box, 0.2 m
Radar Cross Section
0.240 m², Large (>1 m²)

Expand to show TLE details & history
Last TLE update: 10 hours ago

TLE from 10 hours ago
0 ION SCV-020
1 64545U 25135T   26178.30931889  .00003325  00000-0  16063-3 0  9997
2 64545  97.4618 293.1215 0009306 113.5611 246.6602 15.19301254 56389
Epoch: 2026-06-27T07:25Z
TLE epoch observation values (Epoch: 2026-06-27T07:25:25.152Z)
Latitude
Longitude
-93.65862°
Altitude
513.583 km
Speed
7.606 km/s
True Right ascension
19h 32m 29s
True Declination
0° 00' 00"
Sunlit
Object was in full shadow at epoch
Visualization orbit readout
Latitude
Unknown
Longitude
Unknown
Altitude
Unknown
Speed
Unknown
Apparent Right ascension
Unknown
Apparent Declination
Unknown
Sunlit
N/A
Visualization observer readout
Local Sidereal Time
04:24:30
Azimuth
Unknown
Elevation
Unknown
Doppler factor
Unknown
Orbital elements
Apogee altitude
511.326 km
Perigee altitude
498.515 km
Semi-major axis
6,883.057 km
Eccentricity
0.00093
Inclination
97.4618°
RAAN
293.1215°
Arg. of periapsis
113.5611°
True anomaly
246.56233°
Mean anomaly
246.6602°
Eccentric anomaly
246.61126°
Mean motion
3.80077 °/min
Orbital period
94.72 mins
BSTAR
0.00016063
Loading maneuver chart data...
Computing Atmospheric mass density...
Loading historical data...
Loading historical data...
Loading historical data...
Loading historical data...
Loading historical data...
Loading historical data...
Loading historical data...

Documentation

Showing up to 5 results
|